This is the latest recevied weather packets stored in our database for station/object DW9280. If no packets are shown the sender has not sent any weather packets the latest 10 day(s).
| Time | Temp. | Humidity | Pressure | Rain* | Wind** | Luminosity | Snow |
|---|---|---|---|---|---|---|---|
| 1778163723 | 16.67° C | 60% | 1016.3 hPa | 0 mm | - | 638 W/m² | - |
| 1778163423 | 16.67° C | 60% | 1016.3 hPa | 0 mm | - | 645 W/m² | - |
| 1778163123 | 16.67° C | 61% | 1016.3 hPa | 0 mm | - | 647 W/m² | - |
| 1778162822 | 16.67° C | 61% | 1016.4 hPa | 0 mm | - | 657 W/m² | - |
| 1778162523 | 16.11° C | 58% | 1016.5 hPa | 0 mm | - | 668 W/m² | - |
| 1778162224 | 16.67° C | 58% | 1016.4 hPa | 0 mm | - | 680 W/m² | - |
| 1778161923 | 16.67° C | 59% | 1016.5 hPa | 0 mm | - | 686 W/m² | - |
| 1778161624 | 16.67° C | 59% | 1016.4 hPa | 0 mm | - | 700 W/m² | - |
| 1778161324 | 16.67° C | 60% | 1016.4 hPa | 0 mm | - | 708 W/m² | - |
| 1778161147 | 16.67° C | 60% | 1016.4 hPa | 0 mm | - | 717 W/m² | - |
| 1778160724 | 16.11° C | 61% | 1016.4 hPa | 0 mm | - | 721 W/m² | - |
| 1778160424 | 16.11° C | 62% | 1016.4 hPa | 0 mm | - | 728 W/m² | - |
| 1778160123 | 16.67° C | 61% | 1016.4 hPa | 0 mm | - | 728 W/m² | - |
| 1778159824 | 16.67° C | 59% | 1016.4 hPa | 0 mm | - | 737 W/m² | - |
| 1778159523 | 16.67° C | 62% | 1016.5 hPa | 0 mm | - | 740 W/m² | - |
| 1778159223 | 16.67° C | 63% | 1016.4 hPa | 0 mm | - | 744 W/m² | - |
| 1778158923 | 16.67° C | 64% | 1016.4 hPa | 0 mm | - | 761 W/m² | - |
| 1778158624 | 16.67° C | 62% | 1016.4 hPa | 0 mm | - | 766 W/m² | - |
| 1778158323 | 16.67° C | 61% | 1016.4 hPa | 0 mm | - | 784 W/m² | - |
| 1778158022 | 16.67° C | 63% | 1016.4 hPa | 0 mm | - | 780 W/m² | - |
| 1778157724 | 16.67° C | 63% | 1016.4 hPa | 0 mm | - | 782 W/m² | - |
| 1778157423 | 16.67° C | 61% | 1016.4 hPa | 0 mm | - | 784 W/m² | - |
| 1778157123 | 16.67° C | 62% | 1016.3 hPa | 0 mm | - | 786 W/m² | - |
| 1778156825 | 16.67° C | 60% | 1016.3 hPa | 0 mm | - | 793 W/m² | - |
| 1778156523 | 16.67° C | 60% | 1016.3 hPa | 0 mm | - | 798 W/m² | - |
* Rain latest hour (hover to see other rain measurements)
** Current wind speed in m/s (hover to see current wind gust speed)